Radiation Dose at Monitoring Post of Fukushima Daini Nuclear Power Station
Date,Time,MP-1(microSv/h),MP-2(microSv/h),MP-3(microSv/h),MP-4(microSv/h),MP-5(microSv/h),MP-6(microSv/h),MP-7(microSv/h),Wind Direction,Wind Velocity(m/s),Rain
2020/02/07,00:00,0.182,0.164,0.277,0.258,0.255,0.140,0.086,west,4.9,No
2020/02/07,00:10,0.182,0.164,0.276,0.258,0.254,0.140,0.086,west,4.4,No
2020/02/07,00:20,0.182,0.163,0.277,0.257,0.254,0.140,0.086,west,4.7,No
2020/02/07,00:30,0.182,0.163,0.277,0.256,0.254,0.141,0.086,west,4.4,No
2020/02/07,00:40,0.182,0.163,0.277,0.258,0.253,0.140,0.086,west,7.4,No
2020/02/07,00:50,0.182,0.163,0.277,0.258,0.254,0.139,0.086,west,6.7,No
2020/02/07,01:00,0.182,0.163,0.277,0.257,0.253,0.140,0.087,west,5.1,No
2020/02/07,01:10,0.181,0.163,0.276,0.257,0.254,0.140,0.087,west,6.4,No
2020/02/07,01:20,0.182,0.164,0.277,0.258,0.254,0.140,0.086,west,5.4,No
2020/02/07,01:30,0.182,0.162,0.278,0.257,0.254,0.139,0.086,west-northwest,5.1,No
2020/02/07,01:40,0.182,0.163,0.277,0.257,0.253,0.140,0.086,west,5.6,No
2020/02/07,01:50,0.182,0.162,0.276,0.257,0.254,0.140,0.086,west-northwest,5.1,No
2020/02/07,02:00,0.182,0.163,0.276,0.256,0.252,0.139,0.086,west,5.3,No
2020/02/07,02:10,0.181,0.163,0.276,0.255,0.254,0.139,0.086,west,5.6,No
2020/02/07,02:20,0.182,0.163,0.278,0.256,0.254,0.140,0.086,west,5.8,No
2020/02/07,02:30,0.182,0.163,0.276,0.257,0.256,0.139,0.085,west,5.3,No
2020/02/07,02:40,0.181,0.163,0.277,0.257,0.256,0.139,0.086,west,6.4,No
2020/02/07,02:50,0.182,0.163,0.276,0.257,0.253,0.139,0.086,west-northwest,6.5,No
2020/02/07,03:00,0.182,0.163,0.277,0.256,0.252,0.140,0.086,west-northwest,5.0,No
2020/02/07,03:10,0.182,0.163,0.276,0.257,0.253,0.139,0.085,west-northwest,3.2,No
2020/02/07,03:20,0.181,0.162,0.277,0.255,0.253,0.140,0.085,west-northwest,3.9,No
2020/02/07,03:30,0.182,0.163,0.276,0.257,0.253,0.140,0.086,west,4.5,No
2020/02/07,03:40,0.182,0.162,0.278,0.257,0.253,0.139,0.086,west-northwest,3.9,No
2020/02/07,03:50,0.182,0.163,0.276,0.257,0.255,0.140,0.086,west,4.1,No
2020/02/07,04:00,0.182,0.163,0.277,0.257,0.254,0.140,0.085,west-northwest,4.2,No
2020/02/07,04:10,0.181,0.162,0.277,0.257,0.253,0.140,0.087,west-northwest,4.7,No
2020/02/07,04:20,0.180,0.163,0.276,0.256,0.253,0.139,0.086,west,4.4,No
2020/02/07,04:30,0.181,0.163,0.276,0.256,0.253,0.139,0.086,west-northwest,4.6,No
2020/02/07,04:40,0.183,0.163,0.277,0.255,0.253,0.139,0.086,west-northwest,4.5,No
2020/02/07,04:50,0.182,0.162,0.276,0.257,0.253,0.140,0.085,west,4.4,No
2020/02/07,05:00,0.181,0.163,0.276,0.258,0.252,0.138,0.086,west-northwest,5.5,No
2020/02/07,05:10,0.182,0.162,0.276,0.255,0.254,0.139,0.086,west-northwest,4.4,No
2020/02/07,05:20,0.181,0.162,0.276,0.257,0.253,0.139,0.086,west,2.8,No
2020/02/07,05:30,0.181,0.163,0.276,0.255,0.253,0.139,0.086,west-northwest,2.1,No
2020/02/07,05:40,0.181,0.162,0.278,0.256,0.252,0.139,0.087,northwest,1.4,No
2020/02/07,05:50,0.180,0.163,0.277,0.257,0.253,0.138,0.086,west-southwest,1.4,No
2020/02/07,06:00,0.182,0.162,0.278,0.256,0.253,0.139,0.086,west-southwest,1.8,No
2020/02/07,06:10,0.182,0.162,0.277,0.256,0.253,0.140,0.086,west-southwest,3.0,No
2020/02/07,06:20,0.182,0.163,0.276,0.257,0.253,0.140,0.087,west-southwest,3.0,No
2020/02/07,06:30,0.181,0.163,0.276,0.255,0.254,0.140,0.086,west,3.8,No
2020/02/07,06:40,0.181,0.163,0.276,0.257,0.255,0.140,0.086,west,4.8,No
2020/02/07,06:50,0.181,0.162,0.278,0.257,0.253,0.140,0.086,west,5.3,No
2020/02/07,07:00,0.182,0.163,0.277,0.256,0.253,0.140,0.086,west-northwest,4.5,No
2020/02/07,07:10,0.181,0.162,0.277,0.256,0.253,0.138,0.085,west-northwest,3.8,No
2020/02/07,07:20,0.182,0.163,0.277,0.256,0.253,0.140,0.086,west,1.6,No
2020/02/07,07:30,0.181,0.163,0.276,0.256,0.254,0.139,0.086,west,1.9,No
2020/02/07,07:40,0.181,0.163,0.277,0.256,0.252,0.139,0.086,west,3.1,No
2020/02/07,07:50,0.181,0.163,0.276,0.256,0.253,0.140,0.086,west-southwest,3.7,No
2020/02/07,08:00,0.180,0.163,0.277,0.256,0.253,0.140,0.086,west-southwest,3.2,No
2020/02/07,08:10,0.180,0.162,0.275,0.255,0.253,0.139,0.086,west,4.6,No
2020/02/07,08:20,0.180,0.161,0.277,0.255,0.254,0.139,0.086,west,4.2,No
2020/02/07,08:30,0.181,0.162,0.276,0.256,0.253,0.139,0.085,west,4.5,No
2020/02/07,08:40,0.181,0.162,0.277,0.256,0.252,0.139,0.085,west,3.7,No
2020/02/07,08:50,0.181,0.163,0.276,0.256,0.253,0.140,0.085,west,3.4,No
2020/02/07,09:00,0.181,0.164,0.275,0.255,0.253,0.140,0.085,west,4.6,No
2020/02/07,09:10,0.181,0.163,0.276,0.256,0.254,0.139,0.086,west,5.1,No
2020/02/07,09:20,0.181,0.162,0.275,0.256,0.253,0.139,0.086,west,2.7,No
2020/02/07,09:30,0.180,0.162,0.276,0.255,0.254,0.139,0.086,west-northwest,2.5,No
2020/02/07,09:40,0.181,0.162,0.278,0.254,0.253,0.138,0.086,west,2.9,No
2020/02/07,09:50,0.181,0.161,0.276,0.257,0.252,0.140,0.085,west,3.9,No
2020/02/07,10:00,0.181,0.162,0.277,0.256,0.253,0.140,0.085,west,3.2,No
2020/02/07,10:10,0.181,0.162,0.275,0.255,0.252,0.139,0.086,west-northwest,3.1,No
2020/02/07,10:20,0.181,0.162,0.276,0.256,0.253,0.139,0.086,north-northwest,1.4,No
2020/02/07,10:30,0.180,0.163,0.275,0.257,0.252,0.139,0.086,west,8.6,No
2020/02/07,10:40,0.180,0.162,0.275,0.257,0.252,0.140,0.085,west-northwest,6.1,No
2020/02/07,10:50,0.181,0.161,0.276,0.256,0.254,0.139,0.085,west,5.6,No
2020/02/07,11:00,0.180,0.162,0.276,0.257,0.252,0.140,0.086,west,6.6,No
2020/02/07,11:10,0.181,0.162,0.276,0.256,0.254,0.139,0.086,west-southwest,7.4,No
2020/02/07,11:20,0.181,0.163,0.277,0.255,0.252,0.139,0.086,west-southwest,6.8,No
2020/02/07,11:30,0.180,0.162,0.276,0.256,0.253,0.138,0.085,west-southwest,6.5,No
2020/02/07,11:40,0.181,0.163,0.273,0.255,0.254,0.140,0.086,west-southwest,5.9,No
2020/02/07,11:50,0.181,0.162,0.276,0.258,0.253,0.140,0.086,west-southwest,6.5,No
2020/02/07,12:00,0.180,0.162,0.275,0.256,0.253,0.140,0.085,west,7.6,No
2020/02/07,12:10,0.179,0.162,0.275,0.256,0.253,0.140,0.086,west,7.5,No
2020/02/07,12:20,0.181,0.162,0.277,0.255,0.254,0.140,0.086,west,8.2,No
2020/02/07,12:30,0.182,0.162,0.274,0.255,0.253,0.139,0.086,west,6.4,No
2020/02/07,12:40,0.180,0.163,0.274,0.257,0.254,0.139,0.086,west,5.3,No
2020/02/07,12:50,0.181,0.162,0.276,0.254,0.253,0.139,0.085,west-northwest,4.8,No
2020/02/07,13:00,0.181,0.161,0.273,0.257,0.253,0.140,0.085,west-northwest,3.1,No
2020/02/07,13:10,0.181,0.162,0.275,0.255,0.254,0.139,0.085,west-southwest,5.0,No
2020/02/07,13:20,0.180,0.163,0.275,0.256,0.252,0.139,0.086,west,4.1,No
2020/02/07,13:30,0.180,0.163,0.275,0.255,0.254,0.140,0.086,west,3.8,No
2020/02/07,13:40,0.181,0.163,0.276,0.256,0.252,0.140,0.085,west-southwest,4.4,No
2020/02/07,13:50,0.181,0.163,0.274,0.255,0.255,0.139,0.086,west-southwest,3.0,No
2020/02/07,14:00,0.181,0.163,0.278,0.257,0.252,0.139,0.085,west,4.8,No
2020/02/07,14:10,0.180,0.162,0.274,0.256,0.254,0.139,0.086,west-southwest,2.9,No
2020/02/07,14:20,0.181,0.163,0.276,0.256,0.253,0.140,0.086,west-northwest,3.1,No
2020/02/07,14:30,0.179,0.163,0.278,0.256,0.254,0.140,0.086,west-northwest,5.3,No
2020/02/07,14:40,0.180,0.163,0.276,0.256,0.255,0.140,0.087,west-northwest,5.7,No
2020/02/07,14:50,0.182,0.163,0.276,0.258,0.254,0.138,0.086,west,4.1,No
2020/02/07,15:00,0.181,0.163,0.278,0.258,0.254,0.139,0.086,west-southwest,2.0,No
2020/02/07,15:10,0.182,0.162,0.277,0.257,0.254,0.139,0.087,south-southeast,1.4,No
2020/02/07,15:20,0.182,0.163,0.277,0.259,0.255,0.139,0.086,west-southwest,2.2,No
2020/02/07,15:30,0.182,0.162,0.277,0.257,0.254,0.139,0.086,south-southeast,2.3,No
2020/02/07,15:40,0.181,0.163,0.277,0.259,0.254,0.141,0.086,west-northwest,2.1,No
2020/02/07,15:50,0.183,0.164,0.278,0.257,0.254,0.141,0.086,southeast,3.0,No
2020/02/07,16:00,0.182,0.163,0.276,0.258,0.253,0.139,0.086,south-southeast,5.3,No
2020/02/07,16:10,0.182,0.163,0.277,0.258,0.256,0.140,0.086,south-southeast,5.4,No
2020/02/07,16:20,0.183,0.163,0.278,0.257,0.254,0.142,0.087,south,5.2,No
2020/02/07,16:30,0.182,0.162,0.277,0.258,0.255,0.140,0.087,south-southeast,3.3,No
2020/02/07,16:40,0.181,0.163,0.277,0.258,0.254,0.140,0.087,south-southwest,2.3,No
2020/02/07,16:50,0.182,0.165,0.277,0.258,0.254,0.141,0.086,west-southwest,1.7,No
2020/02/07,17:00,0.182,0.163,0.277,0.257,0.254,0.141,0.086,south-southwest,1.5,No
2020/02/07,17:10,0.182,0.164,0.277,0.257,0.254,0.140,0.086,south-southwest,1.8,No
2020/02/07,17:20,0.181,0.163,0.277,0.257,0.254,0.140,0.086,south-southwest,4.2,No
2020/02/07,17:30,0.181,0.164,0.276,0.258,0.253,0.140,0.086,south-southwest,4.0,No
2020/02/07,17:40,0.182,0.164,0.277,0.257,0.254,0.140,0.086,south-southwest,4.0,No
2020/02/07,17:50,0.182,0.163,0.277,0.257,0.254,0.139,0.086,south-southwest,4.8,No
2020/02/07,18:00,0.181,0.162,0.277,0.257,0.254,0.141,0.086,south-southwest,3.7,No
2020/02/07,18:10,0.183,0.164,0.277,0.258,0.255,0.140,0.087,south-southwest,3.1,No
2020/02/07,18:20,0.181,0.164,0.278,0.258,0.255,0.140,0.086,southwest,2.6,No
2020/02/07,18:30,0.182,0.163,0.278,0.258,0.254,0.141,0.086,west-southwest,2.6,No
2020/02/07,18:40,0.183,0.164,0.277,0.259,0.254,0.140,0.086,west-southwest,2.7,No
2020/02/07,18:50,0.181,0.164,0.277,0.258,0.254,0.141,0.086,west-southwest,3.0,No
2020/02/07,19:00,0.182,0.163,0.278,0.258,0.253,0.141,0.087,west,2.7,No
2020/02/07,19:10,0.182,0.163,0.277,0.258,0.254,0.141,0.086,west,2.9,No
2020/02/07,19:20,0.182,0.164,0.278,0.258,0.254,0.141,0.087,west,3.4,No
2020/02/07,19:30,0.183,0.164,0.277,0.258,0.254,0.141,0.087,west-southwest,4.0,No
2020/02/07,19:40,0.182,0.165,0.277,0.258,0.255,0.141,0.086,west,4.0,No
2020/02/07,19:50,0.183,0.164,0.278,0.258,0.254,0.140,0.086,west,4.8,No
2020/02/07,20:00,0.181,0.164,0.278,0.258,0.254,0.140,0.087,west,5.6,No
2020/02/07,20:10,0.182,0.163,0.279,0.259,0.254,0.140,0.086,west,4.3,No
2020/02/07,20:20,0.182,0.163,0.278,0.257,0.255,0.140,0.086,west,4.3,No
2020/02/07,20:30,0.182,0.164,0.277,0.258,0.254,0.141,0.086,west-southwest,3.9,No
2020/02/07,20:40,0.183,0.164,0.277,0.258,0.254,0.141,0.086,west-southwest,4.6,No
2020/02/07,20:50,0.182,0.164,0.276,0.257,0.254,0.140,0.086,west-southwest,4.1,No
2020/02/07,21:00,0.183,0.165,0.277,0.258,0.255,0.142,0.087,west-southwest,4.1,No
2020/02/07,21:10,0.182,0.162,0.278,0.259,0.253,0.141,0.086,west-southwest,4.1,No
2020/02/07,21:20,0.181,0.164,0.279,0.258,0.255,0.141,0.086,southwest,4.5,No
2020/02/07,21:30,0.183,0.164,0.278,0.258,0.256,0.140,0.086,west-southwest,4.9,No
2020/02/07,21:40,0.182,0.164,0.278,0.258,0.256,0.141,0.087,southwest,5.8,No
2020/02/07,21:50,0.183,0.164,0.277,0.259,0.255,0.141,0.087,southwest,7.1,No
2020/02/07,22:00,0.183,0.164,0.277,0.258,0.254,0.140,0.086,southwest,7.0,No
2020/02/07,22:10,0.182,0.164,0.279,0.258,0.254,0.140,0.087,south-southwest,6.1,No
2020/02/07,22:20,0.182,0.164,0.279,0.258,0.254,0.141,0.087,southwest,5.0,No
2020/02/07,22:30,0.182,0.164,0.278,0.259,0.255,0.141,0.087,southwest,5.5,No
2020/02/07,22:40,0.183,0.164,0.277,0.259,0.255,0.141,0.087,southwest,5.1,No
2020/02/07,22:50,0.183,0.163,0.277,0.257,0.254,0.140,0.087,southwest,5.0,No
2020/02/07,23:00,0.182,0.163,0.276,0.258,0.255,0.141,0.086,southwest,5.2,No
2020/02/07,23:10,0.183,0.164,0.277,0.258,0.254,0.142,0.087,southwest,4.5,No
2020/02/07,23:20,0.182,0.165,0.278,0.258,0.254,0.141,0.087,southwest,6.1,No
2020/02/07,23:30,0.183,0.163,0.277,0.259,0.255,0.141,0.088,southwest,7.3,No
2020/02/07,23:40,0.182,0.165,0.277,0.259,0.254,0.141,0.087,southwest,6.3,No
2020/02/07,23:50,0.183,0.164,0.278,0.258,0.255,0.141,0.087,southwest,5.6,No
